ITY1501 LIEE-LIRF

Flight info

Callsign ITY1501
Flight time N/A
Altitude 18000
Route KOVAS Q125 DEXUL DCT ABIDU DCT TINTO DCT VALMA
Aircraft A21N/M-SDE2E3FGHIJ1RWXY/LB1

Departure

Time 2026-04-30 15:11
Airport Cagliari Elmas Airport (LIEE)

Arrival

Time N/A
Airport Rome–Fiumicino Leonardo da Vinci International Airport (LIRF)
Time Latitude Longitude Altitude Speed Heading
2026-04-30 14:51 39.25369 9.05880 22 ft 0 kts 142°
2026-04-30 15:01 39.25373 9.05876 22 ft 2 kts 142°
2026-04-30 15:01 39.25397 9.05851 22 ft 2 kts 146°
2026-04-30 15:02 39.25413 9.05844 22 ft 2 kts 174°
2026-04-30 15:02 39.25429 9.05845 22 ft 2 kts 197°
2026-04-30 15:03 39.25453 9.05868 22 ft 0 kts 232°
2026-04-30 15:04 39.25451 9.05865 22 ft 2 kts 231°
2026-04-30 15:05 39.25266 9.05749 22 ft 14 kts 135°
2026-04-30 15:06 39.25105 9.05941 22 ft 15 kts 131°
2026-04-30 15:06 39.24937 9.06168 22 ft 20 kts 140°
2026-04-30 15:07 39.24656 9.06407 22 ft 24 kts 148°
2026-04-30 15:07 39.24360 9.06581 22 ft 21 kts 191°
2026-04-30 15:08 39.24277 9.06436 22 ft 0 kts 314°
2026-04-30 15:08 39.24284 9.06428 22 ft 0 kts 316°
2026-04-30 15:09 39.24295 9.06414 22 ft 13 kts 317°
2026-04-30 15:10 39.25202 9.05357 22 ft 154 kts 317°
2026-04-30 15:11 39.29491 9.03128 2259 ft 190 kts
2026-04-30 15:11 39.32388 9.03608 3004 ft 224 kts
2026-04-30 15:12 39.37317 9.04072 5203 ft 236 kts
2026-04-30 15:13 39.40618 9.04320 6844 ft 237 kts
2026-04-30 15:14 39.47378 9.04886 9817 ft 252 kts
2026-04-30 15:14 39.53259 9.05630 10966 ft 306 kts
2026-04-30 15:16 39.65288 9.07390 13824 ft 351 kts
2026-04-30 15:17 39.75357 9.10686 16427 ft 366 kts 11°
2026-04-30 15:18 39.88052 9.16487 18065 ft 382 kts 33°
2026-04-30 15:19 39.94487 9.23339 18067 ft 382 kts 36°